Location: Domont
(49.0278°N, 2.3264°E)
Time: 14:52:18
(UTC+00:00)

DX 1 - Visible Passes

Search period start: 26 June 2022 00:00
Search period end: 06 July 2022 00:00
Orbit: 618 x 628 km, 98.4° (Epoch: 26 June)

Date Brightness Start Highest point End Pass type
(mag) Time Alt. Az. Time Alt. Az. Time Alt. Az.
26 Jun ? 21:05:34 10° NNE 21:09:58 76° ESE 21:14:20 10° S visible
26 Jun ? 22:42:58 10° NNW 22:45:32 15° WNW 22:48:07 10° W visible
27 Jun ? 21:23:51 10° N 21:28:14 73° WNW 21:32:35 10° SSW visible
27 Jun ? 23:02:20 10° NW 23:03:34 11° NW 23:04:47 10° WNW visible
28 Jun ? 21:42:13 10° N 21:46:27 49° WNW 21:50:40 10° SW visible
29 Jun ? 22:00:41 10° N 22:04:38 34° WNW 22:08:34 10° SW visible
30 Jun ? 20:42:40 10° NNE 20:46:52 43° E 20:51:02 10° S visible
30 Jun ? 22:19:15 10° N 22:22:46 24° WNW 22:26:15 10° WSW visible
01 Jul ? 21:00:49 10° NNE 21:05:11 66° ESE 21:09:32 10° S visible
01 Jul ? 22:37:59 10° NNW 22:40:51 17° WNW 22:43:42 10° W visible
02 Jul ? 21:19:04 10° NNE 21:23:29 83° WNW 21:27:50 10° SSW visible
02 Jul ? 22:57:05 10° NNW 22:58:53 12° NW 23:00:41 10° W visible
03 Jul ? 21:37:24 10° N 21:41:42 56° WNW 21:45:58 10° SSW visible
04 Jul ? 21:55:50 10° N 21:59:54 38° WNW 22:03:55 10° SW visible
05 Jul ? 20:37:56 10° NNE 20:42:03 38° E 20:46:07 10° SSE visible
05 Jul ? 22:14:21 10° N 22:18:02 27° WNW 22:21:41 10° WSW visible
